Back to catalog

THORAD DELTA 1 DEB

AliveSSO
NORAD 8592·DEBRIS·🇺🇸 United States

Launched Nov 15, 1974 from Vandenberg Space Force Base

Loading…

Next Passes (next 24 hours)

TLE

FreshSource: Space-Track

Epoch: Sep 14, 2026, 03:38 UTC

1 08592U 74089DF  26257.15175047  .00000032  00000-0  60630-3 0  9997
2 08592 101.8223 333.3881 0122779 269.8641 120.6662 12.31902813329025

Track THORAD DELTA 1 DEB in real time with AllMySat

Download on the App Store